Terminal Aerodrome Forecast
Issued by NWS Topeka, KS

Home | Current Version | Previous Version | Text Only | Print | Product List | Glossary Off
Versions: 1 2 3 4 5 6 7 8 9 10 11 12 13 14 15 16 17 18 19

000
FTUS43 KTOP 170700 AAA
TAFTOP
TAF AMD
KTOP 170743Z 1708/1806 36005KT P6SM BKN016
     FM171500 08004KT P6SM BKN150
     FM180300 11005KT 4SM BR VCSH BKN050=

USA.gov is the U.S. government's official web portal to all federal, state and local government web resources and services.